Location: Bald Rock
(37.3738°N, 119.9354°W)
Time: 11:57:21
(UTC+00:00)

Cosmos 1605 Rocket - Pass Details

Date: 08 September 2024
Orbit: 943 x 1006 km, 82.9° (Epoch: 11 October)

Event Time Altitude Azimuth Distance (km) Brightness Sun altitude
Rises 12:37:34 0° 354° (N) 3,704 7.2 -12.3°
Reaches altitude 10° 12:40:07 10° 355° (N) 2,744 6.5 -11.8°
Maximum altitude 12:46:25 83° 83° (E) 982 4.1 -10.6°
Drops below altitude 10° 12:52:35 10° 172° (S) 2,683 6.3 -9.4°
Sets 12:55:03 0° 173° (S) 3,618 6.9 -8.9°
